Location: Ravensburg
(47.7866°N, 9.6124°E)
Time: 07:43:20
(UTC+01:00)

DIWATA 2B (PO-101) - Visible Passes

Search period start: 11 March 2026 00:00
Search period end: 21 March 2026 00:00
Orbit: 559 x 575 km, 98.1° (Epoch: 10 March)

Date Brightness Start Highest point End Pass type
(mag) Time Alt. Az. Time Alt. Az. Time Alt. Az.
11 Mar ? 05:42:24 10° SSE 05:46:24 66° ENE 05:50:25 10° N visible
11 Mar ? 18:53:05 10° NNE 18:57:04 63° ESE 19:01:02 10° S visible
11 Mar ? 20:29:23 10° NNW 20:31:37 15° WNW 20:33:51 10° W visible
12 Mar ? 05:43:18 10° SSE 05:47:18 67° ENE 05:51:19 10° N visible
12 Mar ? 18:53:58 10° NNE 18:57:58 64° ESE 19:01:56 10° S visible
12 Mar ? 20:30:19 10° NNW 20:32:31 14° WNW 20:34:42 10° W visible
13 Mar ? 05:44:11 10° SSE 05:48:11 68° ENE 05:52:12 10° N visible
13 Mar ? 18:54:51 10° NNE 18:58:51 65° ESE 19:02:49 10° S visible
13 Mar ? 20:31:14 10° NNW 20:33:23 14° WNW 20:35:32 10° W visible
14 Mar ? 05:45:04 10° SSE 05:49:04 69° ENE 05:53:05 10° N visible
14 Mar ? 18:55:43 10° NNE 18:59:43 66° ESE 19:03:41 10° S visible
14 Mar ? 20:32:08 10° NNW 20:34:15 14° WNW 20:36:21 10° W visible
15 Mar ? 05:45:56 10° SSE 05:49:56 70° ENE 05:53:57 10° N visible
15 Mar ? 18:56:35 10° NNE 19:00:35 68° ESE 19:04:34 10° S visible
15 Mar ? 20:33:01 10° NNW 20:35:06 14° WNW 20:37:10 10° W visible
16 Mar ? 05:46:47 10° SSE 05:50:47 71° ENE 05:54:48 10° N visible
16 Mar ? 18:57:25 10° NNE 19:01:26 69° ESE 19:05:25 10° S visible
16 Mar ? 20:33:54 10° NNW 20:35:57 14° WNW 20:37:58 10° W visible
17 Mar ? 05:47:37 10° SSE 05:51:37 72° ENE 05:55:39 10° N visible
17 Mar ? 18:58:15 10° NNE 19:02:17 70° ESE 19:06:16 10° S visible
17 Mar ? 20:34:47 10° NNW 20:36:46 14° WNW 20:38:46 10° W visible
18 Mar ? 05:48:28 10° SSE 05:52:28 74° ENE 05:56:29 10° N visible
18 Mar ? 18:59:05 10° NNE 19:03:06 71° ESE 19:07:07 10° S visible
18 Mar ? 20:35:38 10° NNW 20:37:36 13° WNW 20:39:33 10° W visible
19 Mar ? 05:49:17 10° SSE 05:53:17 75° ENE 05:57:19 10° N visible
19 Mar ? 18:59:55 10° NNE 19:03:56 72° ESE 19:07:56 10° S visible
19 Mar ? 20:36:29 10° NNW 20:38:25 13° WNW 20:40:20 10° W visible
20 Mar ? 05:50:06 10° SSE 05:54:06 76° ENE 05:58:08 10° N visible
20 Mar ? 19:00:43 10° NNE 19:04:45 73° ESE 19:08:45 10° S visible
20 Mar ? 20:37:20 10° NNW 20:39:13 13° WNW 20:41:05 10° W visible
